Location: Palomar Mountain Lodge
(33.3110°N, 116.8495°W)
Time: 07:08:12
(UTC-08:00)

ARIANE 5 R/B - Pass Details

Date: 13 December 2025
Orbit: 747 x 792 km, 98.8° (Epoch: 16 January)

Event Time Altitude Azimuth Distance (km) Brightness Sun altitude
Rises 18:02:22 0° 182° (S) 3,192 6.0 -16.5°
Reaches altitude 10° 18:04:45 10° 189° (S) 2,277 5.3 -17.0°
Maximum altitude 18:09:30 43° 260° (W) 1,060 3.7 -18.0°
Drops below altitude 10° 18:14:21 10° 332° (NNW) 2,318 5.1 -18.9°
Sets 18:16:48 0° 339° (NNW) 3,256 5.8 -19.4°
